Showing default

QIANFAN-26, 61559

Orbit data source: Space-Track

QIANFAN-26, 61559 is a Chinese payload satellite in LEO that was launched on Tue, 15 Oct 2024 UTC via a CHANG ZHENG 6A launch vehicle from the Taiyaun Space Center, China (TSC). Payload-class satellites include a variety of spacecraft equipped with specific instruments for various scientific and technological missions. These include communications satellites like Starlink; space stations such as the ISS; scientific satellites like the Hubble; Earth observation satellites from companies like Planet Labs, Umbra, and HawkEye 360; GPS; miniature CubeSats for education and research; and military/defense satellites.

Loading next visibility...
Identifier
61559, 2024-185H
Orbit
LEO
Country
Flag of CNCN / PRC
Related business
Manufacturer
GESIH/SECM
Mission
Operational Commercial Communications
Bus & Motor
QIANFAN, Unknown motor
Mass
267 kg wet, ~267 kg dry
Launch date (UTC)
2024-10-15 (11 months ago)
Launch vehicle
CHANG ZHENG 6A
Launch site
Taiyaun Space Center, China (TSC)
Object type
Payload
Rocket body
Debris
Shape & HBR
Box + 1 Pan, 5.0 m
Radar Cross Section
13.200 m², Large (>1 m²)

Expand to show TLE details & history
Last TLE update: 7 hours ago

TLE from 7 hours ago
0 QIANFAN-26
1 61559U 24185H   25260.90575789  .00000246  00000-0  23296-3 0  9998
2 61559  88.9743  89.0216 0003707 273.5341  86.5401 13.77740381 56854
Epoch: 2025-09-17T21:44Z
TLE epoch observation values (Epoch: 2025-09-17T21:44:17.481Z)
Latitude
-0.00006°
Longitude
125.87377°
Altitude
974.741 km
Speed
7.364 km/s
True Right ascension
05h 56m 05s
True Declination
0° 00' 00"
Sunlit
Object was in daylight at epoch
Visualization orbit readout
Latitude
Unknown
Longitude
Unknown
Altitude
Unknown
Speed
Unknown
Apparent Right ascension
Unknown
Apparent Declination
Unknown
Sunlit
N/A
Visualization observer readout
Local Sidereal Time
21:34:47
Azimuth
Unknown
Elevation
Unknown
Doppler factor
Unknown
Orbital elements
Apogee altitude
971.648 km
Perigee altitude
966.201 km
Semi-major axis
7,347.062 km
Eccentricity
0.00037
Inclination
88.9743°
RAAN
89.0216°
Arg. of periapsis
273.5341°
True anomaly
86.5825°
Mean anomaly
86.5401°
Eccentric anomaly
86.5613°
Mean motion
3.44646 °/min
Orbital period
104.46 mins
BSTAR
0.00023296
Loading maneuver chart data...
Computing Atmospheric mass density...
Loading historical data...
Loading historical data...
Loading historical data...
Loading historical data...
Loading historical data...
Loading historical data...
Loading historical data...

Documentation

Showing up to 5 results
|